Location: Rathdrum
(47.8130°N, 116.8960°W)
Time: 23:26:13
(UTC-07:00)

Amateur Radio Satellites - All Passes

Search period start: 01 September 2015 22:56
Search period end: 02 September 2015 22:56
Location: Rathdrum, 47.8130°N, 116.8960°W

Satellite Date Start Highest point End Downlink Frequencies (MHz)
Time Altitude Azimuth
POLYITAN 1 01 Sep 23:00:33 23:03:10 16° 89° (E) 23:05:55 437.675
DX 1 01 Sep 23:01:51 23:06:07 56° 259° (W) 23:10:25 434.975-435.025
DUCHIFAT 1 01 Sep 23:02:07 23:04:37 15° 89° (E) 23:07:16 145.980
POPSAT HIP 1 01 Sep 23:02:37 23:05:17 16° 89° (E) 23:08:05 437.405
Cosmos 2504 01 Sep 23:03:17 23:11:11 54° 90° (E) 23:19:31 435.465 / 435.565
BUGSAT 1 01 Sep 23:05:57 23:06:41 10° 85° (E) 23:07:41 437.445
UKube-1 01 Sep 23:12:41 23:16:51 48° 260° (W) 23:21:03 .
BEESAT 3 01 Sep 23:16:04 23:20:08 86° 52° (NE) 23:24:08 437.485
CUSAT 1 01 Sep 23:16:48 23:20:09 23° 83° (E) 23:24:25 437.405
SPROUT 01 Sep 23:16:55 23:20:35 28° 67° (ENE) 23:24:20 437.525
QB50P2 01 Sep 23:19:18 23:22:49 25° 93° (E) 23:26:24 145.880/145.840
NANOSAT C BR1 01 Sep 23:19:24 23:22:50 23° 92° (E) 23:26:20 145.865
ESTCUBE 1 01 Sep 23:19:46 23:24:16 78° 256° (WSW) 23:28:47 437.505/2401.250
CUBEBUG 1 01 Sep 23:25:30 23:29:49 82° 257° (WSW) 23:34:12 437.445
YUBILEINY 01 Sep 23:25:39 23:32:53 26° 302° (WNW) 23:39:55 435.215
AISAT 01 Sep 23:28:53 23:33:08 46° 261° (W) 23:37:26 437.250
BEESAT 2 01 Sep 23:29:56 23:34:03 89° 81° (E) 23:38:04 435.950
QB50P1 01 Sep 23:33:18 23:37:11 32° 96° (E) 23:41:05 145.935-145.965
UNISAT 6 01 Sep 23:40:21 23:45:00 83° 285° (WNW) 23:49:28 437.425
RS-15 01 Sep 23:40:22 23:51:50 58° 38° (NE) 00:03:49 29.354- 29.394
SO-50 01 Sep 23:44:16 23:44:16 10° 107° (ESE) 23:44:34 436.795
DANDE 01 Sep 23:53:34 23:56:49 28° 87° (E) 00:01:04 436.750
VELOX 1 01 Sep 23:57:29 00:01:13 26° 267° (W) 00:04:54 145.980
BEESAT 02 Sep 00:05:07 00:07:17 13° 57° (ENE) 00:09:38 436.000
TIGRISAT 02 Sep 00:08:36 00:13:01 46° 290° (WNW) 00:17:18 435.000
50 SAT 02 Sep 00:12:46 00:14:54 14° 272° (W) 00:16:52 437.505
AIST 2 02 Sep 00:14:28 00:18:38 58° 48° (NE) 00:22:43 435.215
TISAT 1 02 Sep 00:15:24 00:19:35 65° 73° (ENE) 00:23:48 437.305
AUBIESAT-1 02 Sep 00:23:03 00:27:00 56° 294° (WNW) 00:30:37 437.475
ANTELSAT 02 Sep 00:26:29 00:30:34 31° 294° (WNW) 00:34:31 437.575/2403.000
SWISSCUBE 02 Sep 00:29:31 00:33:08 23° 62° (ENE) 00:36:53 437.505
M-CUBED/EXP-1 PRIME 02 Sep 00:29:44 00:33:36 41° 297° (WNW) 00:37:08 437.505
POLYITAN 1 02 Sep 00:35:13 00:39:30 58° 287° (WNW) 00:43:42 437.675
DUCHIFAT 1 02 Sep 00:36:36 00:40:51 59° 288° (WNW) 00:45:03 145.980
POPSAT HIP 1 02 Sep 00:37:19 00:41:34 57° 288° (WNW) 00:45:46 437.405
BUGSAT 1 02 Sep 00:38:33 00:42:50 87° 289° (WNW) 00:47:07 437.445
Oscar 19 02 Sep 00:50:57 00:52:33 12° 84° (E) 00:54:26 437.125/150
SPROUT 02 Sep 00:52:43 00:56:36 32° 265° (W) 01:00:30 437.525
NANOSAT C BR1 02 Sep 00:54:47 00:58:48 38° 291° (WNW) 01:02:46 145.865
QB50P2 02 Sep 00:54:50 00:58:49 37° 291° (WNW) 01:02:46 145.880/145.840
Cosmos 2504 02 Sep 00:56:00 01:03:45 40° 293° (WNW) 01:11:43 435.465 / 435.565
BEESAT 3 02 Sep 00:56:01 00:57:28 11° 249° (WSW) 00:58:43 437.485
CUSAT 1 02 Sep 00:58:02 01:02:12 44° 292° (WNW) 01:07:41 437.405
ITUPSAT 1 02 Sep 01:07:39 01:12:08 43° 68° (ENE) 01:16:40 437.325
QB50P1 02 Sep 01:09:15 01:12:58 28° 294° (WNW) 01:16:37 145.935-145.965
BEESAT 2 02 Sep 01:10:11 01:11:28 11° 250° (WSW) 01:12:32 435.950
UNISAT 6 02 Sep 01:19:07 01:21:02 12° 303° (WNW) 01:22:46 437.425
SO-50 02 Sep 01:19:11 01:23:57 67° 125° (SE) 01:28:53 436.795
PCSat 02 Sep 01:30:27 01:35:25 39° 114° (ESE) 01:40:29 145.827
DANDE 02 Sep 01:36:24 01:39:55 29° 297° (WNW) 01:44:23 436.750
BEESAT 02 Sep 01:39:40 01:44:27 85° 77° (ENE) 01:49:15 436.000
Gurwin Techsat 1B 02 Sep 01:42:27 01:43:51 11° 83° (E) 01:45:34 435.225
ITAMSAT 1 02 Sep 01:53:07 01:54:10 11° 83° (E) 01:55:33 435.822/435.867
RS-15 02 Sep 01:53:09 02:04:37 59° 243° (WSW) 02:16:23 29.354- 29.394
TISAT 1 02 Sep 01:53:32 01:55:50 14° 272° (W) 01:58:00 437.305
AIST 2 02 Sep 01:53:50 01:56:50 19° 246° (WSW) 01:59:41 435.215
SWISSCUBE 02 Sep 02:06:03 02:10:42 52° 260° (W) 02:15:23 437.505
STARS 02 Sep 02:08:43 02:11:56 20° 62° (ENE) 02:15:14 437.465
GONETS M04 02 Sep 02:14:17 02:22:16 44° 88° (E) 02:30:25
BUGSAT 1 02 Sep 02:16:07 02:17:40 12° 302° (WNW) 02:19:03 437.445
Cosmos 2499 02 Sep 02:16:37 02:19:20 12° 70° (ENE) 02:22:43 435.465 / 435.565
Oscar 19 02 Sep 02:27:37 02:32:53 80° 105° (ESE) 02:38:05 437.125/150
KKS-1 02 Sep 02:29:28 02:33:45 48° 70° (ENE) 02:38:06 437.445
ITUPSAT 1 02 Sep 02:46:12 02:50:13 25° 267° (W) 02:54:09 437.325
MOZHAYETS 4 02 Sep 02:53:27 02:56:08 16° 60° (ENE) 02:58:59
O/OREOS (USA 219) 02 Sep 02:58:46 03:01:45 17° 44° (NE) 03:04:50 437.305
SO-50 02 Sep 03:00:44 03:04:57 27° 326° (NW) 03:09:11 436.795
AO-7 02 Sep 03:08:10 03:12:29 15° 83° (E) 03:17:18 29.400- 29.500
PCSat 02 Sep 03:13:44 03:18:52 41° 314° (NW) 03:24:00 145.827
Gurwin Techsat 1B 02 Sep 03:19:32 03:24:52 76° 103° (ESE) 03:30:12 435.225
BEESAT 02 Sep 03:20:46 03:23:01 13° 274° (W) 03:25:02 436.000
JAS-2 02 Sep 03:27:51 03:34:43 50° 96° (E) 03:40:47 435.910
ITAMSAT 1 02 Sep 03:29:28 03:34:41 76° 103° (ESE) 03:39:53 435.822/435.867
HORYU 2 02 Sep 03:31:19 03:32:20 11° 85° (E) 03:33:36 437.375
STARS 02 Sep 03:43:43 03:48:03 52° 261° (W) 03:52:24 437.465
VERMONT LUNAR 02 Sep 03:50:07 03:51:46 14° 164° (SSE) 03:53:25 437.305
Cosmos 2499 02 Sep 04:02:25 04:10:40 57° 91° (E) 04:19:19 435.465 / 435.565
KKS-1 02 Sep 04:07:18 04:10:40 20° 269° (W) 04:13:59 437.445
Oscar 19 02 Sep 04:08:11 04:11:40 18° 302° (WNW) 04:14:59 437.125/150
RS-15 02 Sep 04:09:03 04:14:51 14° 264° (W) 04:19:40 29.354- 29.394
GONETS M04 02 Sep 04:10:46 04:19:08 48° 290° (WNW) 04:27:31
MOZHAYETS 4 02 Sep 04:28:15 04:32:52 74° 258° (WSW) 04:37:29
O/OREOS (USA 219) 02 Sep 04:37:13 04:41:51 81° 246° (WSW) 04:46:26 437.305
SO-50 02 Sep 04:45:02 04:47:09 12° 349° (N) 04:49:13 436.795
CUBESAT XI-V 02 Sep 04:50:19 04:53:44 21° 63° (ENE) 04:57:15 437.345
AO-7 02 Sep 04:58:44 05:07:03 71° 106° (ESE) 05:15:19 29.400- 29.500
Gurwin Techsat 1B 02 Sep 05:00:36 05:04:20 19° 302° (WNW) 05:07:54 435.225
PCSat 02 Sep 05:01:01 05:03:51 14° 338° (NNW) 05:06:34 145.827
HORYU 2 02 Sep 05:05:13 05:09:44 89° 278° (W) 05:14:10 437.375
ITAMSAT 1 02 Sep 05:10:06 05:13:41 19° 302° (WNW) 05:17:07 435.822/435.867
JAS-2 02 Sep 05:13:07 05:19:37 37° 299° (WNW) 05:25:21 435.910
STRAND 1 02 Sep 05:16:12 05:18:52 15° 56° (NE) 05:21:42 437.568
VERMONT LUNAR 02 Sep 05:25:17 05:27:35 20° 180° (S) 05:29:52 437.305
YUBILEINY 02 Sep 05:37:26 05:40:53 13° 44° (NE) 05:44:49 435.215
Cosmos 2499 02 Sep 05:56:12 06:04:15 40° 294° (WNW) 06:12:28 435.465 / 435.565
CUTE-I 02 Sep 06:04:52 06:08:32 19° 89° (E) 06:12:22 437.470
PRISM 02 Sep 06:13:52 06:17:12 25° 66° (ENE) 06:20:36 437.425
GONETS M04 02 Sep 06:15:37 06:18:57 12° 318° (NW) 06:21:47
CUBESAT XI-V 02 Sep 06:26:24 06:30:52 51° 261° (W) 06:35:22 437.345
SO-50 02 Sep 06:27:27 06:29:47 13° 14° (NNE) 06:32:10 436.795
PHONESAT 2.4 02 Sep 06:36:47 06:39:23 20° 169° (S) 06:41:59 2401.200-2431.200
HORYU 2 02 Sep 06:43:40 06:45:43 13° 303° (WNW) 06:47:36 437.375
AO-7 02 Sep 06:52:08 06:59:21 34° 307° (NW) 07:06:25 29.400- 29.500
STRAND 1 02 Sep 06:52:17 06:57:24 85° 72° (ENE) 07:02:32 437.568
Cubesat XI-IV 02 Sep 06:59:21 07:04:36 54° 100° (E) 07:09:49 437.490
VERMONT LUNAR 02 Sep 07:01:49 07:03:24 13° 197° (SSW) 07:04:57 437.305
YUBILEINY 02 Sep 07:32:02 07:40:35 51° 71° (ENE) 07:49:07 435.215
CUTE-I 02 Sep 07:43:53 07:49:11 67° 288° (WNW) 07:54:28 437.470
PRISM 02 Sep 07:48:46 07:52:31 34° 263° (W) 07:56:15 437.425
BRITE-PL 02 Sep 07:53:14 07:58:24 40° 96° (E) 08:03:45 437.365/2234.400
Cosmos 2499 02 Sep 07:59:18 08:00:46 10° 321° (NW) 08:01:42 435.465 / 435.565
SO-50 02 Sep 08:07:26 08:11:53 31° 37° (NE) 08:16:16 436.795
AIST 1 02 Sep 08:12:37 08:16:52 80° 98° (E) 08:21:09
PHONESAT 2.4 02 Sep 08:13:56 08:16:41 23° 186° (S) 08:19:26 2401.200-2431.200
GOMX 1 02 Sep 08:14:12 08:19:15 38° 95° (E) 08:24:22 467.674
ISS 02 Sep 08:20:16 08:22:47 21° 140° (SE) 08:25:21 145.825
DOVE 4 02 Sep 08:20:17 08:24:46 27° 91° (E) 08:29:17 437.250
HO-68 02 Sep 08:23:33 08:29:21 26° 91° (E) 08:35:19 435.675
Cosmos 2491 02 Sep 08:24:45 08:32:45 44° 88° (E) 08:40:52 435.465 / 435.565
CUTE 1.7 + AOD 2 02 Sep 08:29:05 08:32:00 18° 90° (E) 08:35:02 437.475
PCSat 02 Sep 08:31:45 08:35:30 19° 30° (NNE) 08:39:20 145.827
STRAND 1 02 Sep 08:34:39 08:37:23 14° 274° (W) 08:39:52 437.568
Cubesat XI-IV 02 Sep 08:40:03 08:44:25 26° 298° (WNW) 08:48:41 437.490
CANX-2 02 Sep 08:42:51 08:46:30 28° 94° (E) 08:50:10 2200.000
DANDE 02 Sep 08:45:38 08:48:29 13° 50° (NE) 08:51:56 436.750
Cosmos 2504 02 Sep 08:46:10 08:52:39 24° 57° (ENE) 08:59:07 435.465 / 435.565
AO-7 02 Sep 08:47:47 08:49:43 11° 331° (NNW) 08:51:20 29.400- 29.500
CINEMA 3 02 Sep 08:54:11 08:58:14 25° 90° (E) 09:02:18 145.822/145.860
SEEDS 02 Sep 09:01:17 09:05:01 31° 95° (E) 09:08:46 437.485
UNISAT 6 02 Sep 09:07:17 09:10:29 19° 61° (ENE) 09:13:49 437.425
Oscar 11 02 Sep 09:16:53 09:19:18 15° 88° (E) 09:21:53 145.826/435.025
COMPASS 1 02 Sep 09:20:18 09:24:11 38° 97° (E) 09:28:05 437.405
CUTE-I 02 Sep 09:26:08 09:28:24 13° 307° (NW) 09:30:27 437.470
AAUSAT CUBESAT 2 02 Sep 09:29:00 09:32:54 40° 97° (E) 09:36:49 437.432
YUBILEINY 02 Sep 09:29:11 09:37:22 43° 273° (W) 09:45:22 435.215
BRITE-PL 02 Sep 09:31:52 09:36:51 36° 293° (WNW) 09:41:58 437.365/2234.400
TIGRISAT 02 Sep 09:34:06 09:38:09 30° 66° (ENE) 09:42:18 435.000
AUBIESAT-1 02 Sep 09:38:16 09:42:38 39° 63° (ENE) 09:46:54 437.475
DELFI C3 02 Sep 09:41:59 09:44:32 17° 90° (E) 09:47:10 145.870
M-CUBED/EXP-1 PRIME 02 Sep 09:44:58 09:49:36 51° 66° (ENE) 09:54:08 437.505
CUSAT 1 02 Sep 09:46:10 09:53:12 38° 66° (ENE) 10:00:49 437.405
SO-50 02 Sep 09:47:50 09:52:42 55° 238° (WSW) 09:57:26 436.795
ANTELSAT 02 Sep 09:51:28 09:55:54 44° 70° (ENE) 10:00:25 437.575/2403.000
GOMX 1 02 Sep 09:52:21 09:57:20 37° 293° (WNW) 10:02:19 467.674
PHONESAT 2.4 02 Sep 09:52:23 09:53:53 12° 202° (SSW) 09:55:21 2401.200-2431.200
AIST 1 02 Sep 09:53:29 09:55:13 12° 299° (WNW) 09:56:45
ISS 02 Sep 09:55:39 09:58:55 81° 338° (NNW) 10:02:12 145.825
POLYITAN 1 02 Sep 09:56:45 09:59:51 20° 63° (ENE) 10:03:02 437.675
DOVE 4 02 Sep 09:57:37 10:02:43 48° 290° (WNW) 10:07:47 437.250
DUCHIFAT 1 02 Sep 09:57:40 10:00:37 19° 63° (ENE) 10:03:42 145.980
POPSAT HIP 1 02 Sep 09:58:39 10:01:44 20° 63° (ENE) 10:04:56 437.405
BUGSAT 1 02 Sep 09:59:04 10:00:49 13° 59° (ENE) 10:02:44 437.445
ZACube-1 02 Sep 10:02:43 10:06:40 29° 94° (E) 10:10:33 437.345
CUTE 1.7 + AOD 2 02 Sep 10:04:08 10:08:13 47° 289° (WNW) 10:12:15 437.475
FUNcube-1 02 Sep 10:07:16 10:11:17 31° 95° (E) 10:15:14 145.935
CUBEBUG 2 02 Sep 10:09:44 10:14:23 57° 99° (E) 10:18:54 437.445
HO-68 02 Sep 10:10:35 10:17:47 71° 291° (WNW) 10:24:55 435.675
UWE-3 02 Sep 10:13:11 10:17:39 48° 98° (E) 10:22:00 435.000/436.395/437.385
PCSat 02 Sep 10:14:33 10:19:59 68° 53° (NE) 10:25:23 145.827
NANOSAT C BR1 02 Sep 10:15:04 10:18:40 28° 66° (ENE) 10:22:21 145.865
QB50P2 02 Sep 10:15:22 10:19:03 29° 67° (ENE) 10:22:48 145.880/145.840
CANX-2 02 Sep 10:18:40 10:22:27 31° 292° (WNW) 10:26:09 2200.000
Cosmos 2491 02 Sep 10:21:15 10:29:38 48° 290° (WNW) 10:38:00 435.465 / 435.565
DANDE 02 Sep 10:26:14 10:33:24 49° 71° (ENE) 10:41:35 436.750
QB50P1 02 Sep 10:29:06 10:33:01 38° 69° (ENE) 10:37:02 145.935-145.965
CINEMA 3 02 Sep 10:30:50 10:35:41 47° 290° (WNW) 10:40:22 145.822/145.860
HUMSAT D 02 Sep 10:33:42 10:37:09 24° 92° (E) 10:40:37 437.325/437.525
SEEDS 02 Sep 10:37:08 10:40:45 28° 293° (WNW) 10:44:18 437.485
Cosmos 2504 02 Sep 10:37:39 10:46:17 90° 211° (SSW) 10:54:20 435.465 / 435.565
UNISAT 6 02 Sep 10:42:09 10:46:50 64° 259° (W) 10:51:33 437.425
DX 1 02 Sep 10:47:21 10:50:30 19° 91° (E) 10:53:45 434.975-435.025
Oscar 11 02 Sep 10:51:41 10:55:58 62° 287° (WNW) 11:00:12 145.826/435.025
COMPASS 1 02 Sep 10:56:21 10:59:41 23° 295° (WNW) 11:02:54 437.405
UKube-1 02 Sep 10:57:02 11:00:22 22° 92° (E) 11:03:47 .
AAUSAT CUBESAT 2 02 Sep 11:05:04 11:08:18 22° 295° (WNW) 11:11:26 437.432
ESTCUBE 1 02 Sep 11:09:55 11:12:52 17° 89° (E) 11:15:57 437.505/2401.250
TIGRISAT 02 Sep 11:10:28 11:14:49 36° 264° (W) 11:19:11 435.000
CUBEBUG 1 02 Sep 11:12:04 11:14:33 15° 88° (E) 11:17:12 437.445
AUBIESAT-1 02 Sep 11:13:11 11:17:22 30° 260° (W) 11:21:25 437.475
DELFI C3 02 Sep 11:16:01 11:19:53 47° 288° (WNW) 11:23:43 145.870
AISAT 02 Sep 11:16:09 11:19:54 26° 94° (E) 11:23:42 437.250
M-CUBED/EXP-1 PRIME 02 Sep 11:20:44 11:24:35 23° 263° (W) 11:28:17 437.505
CUSAT 1 02 Sep 11:28:30 11:36:07 60° 265° (W) 11:44:09 437.405
ANTELSAT 02 Sep 11:29:00 11:32:53 24° 268° (W) 11:36:42 437.575/2403.000
POLYITAN 1 02 Sep 11:31:15 11:35:25 49° 261° (W) 11:39:38 437.675
BUGSAT 1 02 Sep 11:31:37 11:35:42 80° 257° (WSW) 11:39:54 437.445
DUCHIFAT 1 02 Sep 11:31:57 11:36:05 51° 260° (W) 11:40:17 145.980
ISS 02 Sep 11:32:29 11:35:35 40° 357° (N) 11:38:42 145.825
POPSAT HIP 1 02 Sep 11:33:10 11:37:18 48° 261° (W) 11:41:29 437.405
ZACube-1 02 Sep 11:38:57 11:43:02 33° 293° (WNW) 11:46:58 437.345
50 SAT 02 Sep 11:42:03 11:45:52 53° 100° (E) 11:49:37 437.505
VELOX 1 02 Sep 11:43:28 11:47:47 45° 99° (E) 11:52:06 145.980
FUNcube-1 02 Sep 11:43:34 11:47:34 31° 293° (WNW) 11:51:25 145.935
CUBEBUG 2 02 Sep 11:47:13 11:50:40 20° 298° (WNW) 11:53:58 437.445
UWE-3 02 Sep 11:50:16 11:53:52 22° 297° (WNW) 11:57:19 435.000/436.395/437.385
NANOSAT C BR1 02 Sep 11:50:33 11:54:26 33° 265° (W) 11:58:17 145.865
QB50P2 02 Sep 11:51:03 11:54:54 31° 265° (W) 11:58:43 145.880/145.840
PCSat 02 Sep 11:58:50 12:02:57 22° 251° (WSW) 12:06:56 145.827
HO-68 02 Sep 11:59:43 12:04:25 18° 312° (NW) 12:08:52 435.675
JAS-2 02 Sep 12:04:26 12:05:45 11° 41° (NE) 12:07:26 435.910
QB50P1 02 Sep 12:05:33 12:09:02 23° 267° (W) 12:12:28 145.935-145.965
HUMSAT D 02 Sep 12:09:04 12:13:00 36° 291° (WNW) 12:16:50 437.325/437.525
DANDE 02 Sep 12:09:27 12:16:36 46° 267° (W) 12:24:30 436.750
Oscar 19 02 Sep 12:09:56 12:14:06 26° 62° (ENE) 12:18:22 437.125/150
GONETS M04 02 Sep 12:19:44 12:26:52 28° 59° (ENE) 12:34:14
DX 1 02 Sep 12:22:47 12:27:02 49° 290° (WNW) 12:31:16 434.975-435.025
AO-7 02 Sep 12:25:04 12:26:56 11° 30° (NNE) 12:29:09 29.400- 29.500
Cosmos 2491 02 Sep 12:26:10 12:29:27 12° 317° (NW) 12:32:15 435.465 / 435.565
Cosmos 2504 02 Sep 12:31:17 12:37:23 22° 283° (WNW) 12:42:57 435.465 / 435.565
UKube-1 02 Sep 12:32:35 12:36:43 43° 291° (WNW) 12:40:49 .
SPROUT 02 Sep 12:35:27 12:39:24 33° 96° (E) 12:43:22 437.525
ESTCUBE 1 02 Sep 12:45:43 12:50:09 57° 288° (WNW) 12:54:34 437.505/2401.250
CUBEBUG 1 02 Sep 12:47:00 12:51:24 65° 287° (WNW) 12:55:48 437.445
AISAT 02 Sep 12:52:24 12:56:34 38° 292° (WNW) 13:00:42 437.250
Gurwin Techsat 1B 02 Sep 13:05:30 13:09:50 27° 62° (ENE) 13:14:16 435.225
ISS 02 Sep 13:09:06 13:12:20 61° 17° (NNE) 13:15:34 145.825
ITAMSAT 1 02 Sep 13:12:51 13:17:00 26° 62° (ENE) 13:21:16 435.822/435.867
CUSAT 1 02 Sep 13:13:40 13:17:32 14° 281° (WNW) 13:20:59 437.405
50 SAT 02 Sep 13:17:37 13:20:00 16° 297° (WNW) 13:22:16 437.505
VELOX 1 02 Sep 13:20:33 13:24:05 23° 296° (WNW) 13:27:32 145.980
TISAT 1 02 Sep 13:31:53 13:36:11 74° 102° (ESE) 13:40:27 437.305
BEESAT 02 Sep 13:37:33 13:40:32 17° 89° (E) 13:43:40 436.000
JAS-2 02 Sep 13:41:52 13:48:51 38° 62° (ENE) 13:55:53 435.910
Oscar 19 02 Sep 13:48:08 13:53:10 52° 260° (W) 13:58:16 437.125/150
Cosmos 2499 02 Sep 13:50:06 13:57:08 27° 58° (ENE) 14:04:03 435.465 / 435.565
SWISSCUBE 02 Sep 14:02:58 14:07:10 31° 95° (E) 14:11:24 437.505
AO-7 02 Sep 14:10:10 14:17:20 35° 54° (NE) 14:24:38 29.400- 29.500
SPROUT 02 Sep 14:11:39 14:15:24 28° 294° (WNW) 14:19:04 437.525
RS-15 02 Sep 14:14:15 14:20:13 17° 98° (E) 14:27:02 29.354- 29.394
GONETS M04 02 Sep 14:16:03 14:24:52 80° 264° (W) 14:33:42
HORYU 2 02 Sep 14:31:54 14:34:48 18° 61° (ENE) 14:37:51 437.375
ITUPSAT 1 02 Sep 14:42:08 14:46:54 64° 102° (ESE) 14:51:38 437.325
Gurwin Techsat 1B 02 Sep 14:44:25 14:49:35 51° 261° (W) 14:54:46 435.225
ISS 02 Sep 14:45:41 14:48:38 31° 216° (SW) 14:51:33 145.825
BEESAT 3 02 Sep 14:48:43 14:52:40 51° 122° (ESE) 14:56:40 437.485
ITAMSAT 1 02 Sep 14:51:12 14:56:15 52° 260° (W) 15:01:19 435.822/435.867
BEESAT 2 02 Sep 15:03:40 15:07:40 55° 123° (ESE) 15:11:43 435.950
TISAT 1 02 Sep 15:09:02 15:11:25 14° 300° (WNW) 15:13:41 437.305
BEESAT 02 Sep 15:14:09 15:18:53 65° 288° (WNW) 15:23:36 436.000
JAS-2 02 Sep 15:25:54 15:33:35 60° 261° (W) 15:41:19 435.910
STARS 02 Sep 15:30:21 15:33:51 23° 92° (E) 15:37:24 437.465
SWISSCUBE 02 Sep 15:40:43 15:45:04 35° 293° (WNW) 15:49:21 437.505
Cosmos 2499 02 Sep 15:42:45 15:51:31 81° 263° (W) 15:59:38 435.465 / 435.565
KKS-1 02 Sep 15:53:22 15:57:51 61° 101° (E) 16:02:18 437.445
AIST 2 02 Sep 15:53:32 15:57:28 39° 120° (ESE) 16:01:27 435.215
AO-7 02 Sep 16:01:21 16:09:40 70° 254° (WSW) 16:18:01 29.400- 29.500
HORYU 2 02 Sep 16:06:32 16:11:01 64° 259° (WSW) 16:15:31 437.375
GONETS M04 02 Sep 16:14:43 16:20:28 19° 284° (WNW) 16:25:48
RS-15 02 Sep 16:19:46 16:30:33 69° 120° (ESE) 16:41:52 29.354- 29.394
MOZHAYETS 4 02 Sep 16:20:37 16:23:59 21° 90° (E) 16:27:27
ITUPSAT 1 02 Sep 16:20:59 16:24:22 19° 300° (WNW) 16:27:37 437.325
BEESAT 3 02 Sep 16:27:23 16:30:50 25° 322° (NW) 16:34:15 437.485
BEESAT 2 02 Sep 16:42:34 16:45:59 24° 323° (NW) 16:49:23 435.950
Cubesat XI-IV 02 Sep 16:46:50 16:50:39 21° 59° (ENE) 16:54:36 437.490
BEESAT 02 Sep 16:54:57 16:55:54 10° 306° (NW) 16:56:37 436.000
STARS 02 Sep 17:06:15 17:10:30 43° 291° (WNW) 17:14:41 437.465
JAS-2 02 Sep 17:16:57 17:20:24 13° 283° (WNW) 17:23:20 435.910
CUTE-I 02 Sep 17:29:43 17:34:42 43° 67° (ENE) 17:39:44 437.470
KKS-1 02 Sep 17:30:58 17:34:05 18° 299° (WNW) 17:37:04 437.445
AIST 2 02 Sep 17:32:14 17:36:06 32° 319° (NW) 17:39:57 435.215
Cosmos 2499 02 Sep 17:37:40 17:43:21 19° 285° (WNW) 17:48:27 435.465 / 435.565
MOZHAYETS 4 02 Sep 17:57:06 18:01:31 49° 289° (WNW) 18:05:54
AO-7 02 Sep 17:59:30 18:04:16 15° 277° (W) 18:08:30 29.400- 29.500
AIST 1 02 Sep 18:16:21 18:20:06 28° 71° (ENE) 18:23:54
CUBESAT XI-V 02 Sep 18:19:35 18:23:41 31° 94° (E) 18:27:51 437.345
Cubesat XI-IV 02 Sep 18:25:00 18:30:18 69° 257° (WSW) 18:35:38 437.490
Cosmos 2491 02 Sep 18:30:20 18:37:25 27° 59° (ENE) 18:44:43 435.465 / 435.565
RS-15 02 Sep 18:32:59 18:43:42 50° 328° (NNW) 18:54:53 29.354- 29.394
O/OREOS (USA 219) 02 Sep 18:52:37 18:57:05 61° 112° (ESE) 19:01:38 437.305
HO-68 02 Sep 18:56:07 19:02:05 31° 57° (ENE) 19:08:13 435.675
STRAND 1 02 Sep 18:59:59 19:03:53 22° 91° (E) 19:07:54 437.568
BRITE-PL 02 Sep 19:07:50 19:12:13 55° 71° (ENE) 19:17:00 437.365/2234.400
CUTE-I 02 Sep 19:10:17 19:14:57 30° 266° (W) 19:19:34 437.470
AIST 2 02 Sep 19:14:58 19:15:57 11° 342° (NNW) 19:16:52 435.215
CUTE 1.7 + AOD 2 02 Sep 19:25:12 19:28:27 22° 65° (ENE) 19:31:47 437.475
GOMX 1 02 Sep 19:25:45 19:30:14 51° 70° (ENE) 19:35:06 467.674
PRISM 02 Sep 19:27:23 19:30:44 24° 94° (E) 19:34:10 437.425
DOVE 4 02 Sep 19:29:03 19:33:22 36° 67° (ENE) 19:37:58 437.250
CUBEBUG 2 02 Sep 19:38:06 19:39:28 11° 56° (NE) 19:41:04 437.445
CANX-2 02 Sep 19:38:56 19:42:43 32° 68° (ENE) 19:46:33 2200.000
AIST 1 02 Sep 19:53:55 19:57:45 30° 269° (W) 20:01:32
SEEDS 02 Sep 19:56:24 20:00:14 34° 69° (ENE) 20:04:07 437.485
CUBESAT XI-V 02 Sep 19:56:57 20:01:08 34° 293° (WNW) 20:05:18 437.345
CINEMA 3 02 Sep 19:58:50 20:03:05 33° 66° (ENE) 20:07:31 145.822/145.860
COMPASS 1 02 Sep 20:14:29 20:18:26 41° 70° (ENE) 20:22:25 437.405
Oscar 11 02 Sep 20:14:54 20:17:56 19° 63° (ENE) 20:21:06 145.826/435.025
AAUSAT CUBESAT 2 02 Sep 20:22:43 20:26:40 43° 71° (ENE) 20:30:39 437.432
Cosmos 2491 02 Sep 20:26:40 20:35:26 80° 264° (W) 20:44:12 435.465 / 435.565
DELFI C3 02 Sep 20:32:30 20:35:10 18° 64° (ENE) 20:37:57 145.870
O/OREOS (USA 219) 02 Sep 20:33:27 20:36:58 21° 312° (NW) 20:40:25 437.305
YUBILEINY 02 Sep 20:37:07 20:45:25 51° 90° (E) 20:53:53 435.215
STRAND 1 02 Sep 20:38:28 20:43:28 55° 290° (WNW) 20:48:27 437.568
HO-68 02 Sep 20:42:14 20:49:23 68° 257° (WSW) 20:56:35 435.675
BRITE-PL 02 Sep 20:48:02 20:51:16 19° 273° (W) 20:54:32 437.365/2234.400
RS-15 02 Sep 20:49:28 20:59:31 34° 0° (N) 21:10:00 29.354- 29.394
CUTE 1.7 + AOD 2 02 Sep 21:00:02 21:04:08 43° 262° (W) 21:08:14 437.475
ZACube-1 02 Sep 21:01:32 21:05:42 36° 69° (ENE) 21:09:58 437.345
PRISM 02 Sep 21:02:30 21:06:15 34° 292° (WNW) 21:09:59 437.425
GOMX 1 02 Sep 21:05:08 21:08:46 21° 272° (W) 21:12:29 467.674
FUNcube-1 02 Sep 21:05:49 21:10:03 39° 69° (ENE) 21:14:20 145.935
DOVE 4 02 Sep 21:06:55 21:11:09 32° 267° (W) 21:15:36 437.250
CUBEBUG 2 02 Sep 21:10:40 21:15:20 71° 74° (ENE) 21:20:07 437.445
UWE-3 02 Sep 21:13:01 21:17:35 60° 72° (ENE) 21:22:15 435.000/436.395/437.385
CANX-2 02 Sep 21:14:54 21:18:39 28° 266° (W) 21:22:22 2200.000
Cosmos 2504 02 Sep 21:24:19 21:28:05 14° 72° (ENE) 21:32:25 435.465 / 435.565
BEESAT 3 02 Sep 21:26:44 21:29:34 18° 32° (NNE) 21:32:26 437.485
HUMSAT D 02 Sep 21:28:27 21:32:07 28° 67° (ENE) 21:35:51 437.325/437.525
SEEDS 02 Sep 21:32:30 21:36:06 26° 267° (W) 21:39:38 437.485
CINEMA 3 02 Sep 21:35:49 21:40:13 35° 265° (W) 21:44:46 145.822/145.860
BEESAT 2 02 Sep 21:42:07 21:45:06 19° 33° (NNE) 21:48:05 435.950
DX 1 02 Sep 21:46:06 21:49:43 27° 65° (ENE) 21:53:24 434.975-435.025
Oscar 11 02 Sep 21:49:32 21:53:47 52° 260° (W) 21:58:04 145.826/435.025
COMPASS 1 02 Sep 21:51:02 21:54:17 21° 268° (W) 21:57:28 437.405
UKube-1 02 Sep 21:54:57 21:58:40 29° 66° (ENE) 22:02:26 .
AAUSAT CUBESAT 2 02 Sep 21:59:19 22:02:29 20° 269° (W) 22:05:34 437.432
DELFI C3 02 Sep 22:05:57 22:09:54 50° 261° (W) 22:13:50 145.870
CUBEBUG 1 02 Sep 22:11:27 22:14:33 20° 63° (ENE) 22:17:46 437.445
ESTCUBE 1 02 Sep 22:12:43 22:16:20 25° 65° (ENE) 22:20:02 437.505/2401.250
AISAT 02 Sep 22:17:00 22:21:01 35° 67° (ENE) 22:25:05 437.250
Cosmos 2491 02 Sep 22:25:22 22:31:02 19° 284° (WNW) 22:36:19 435.465 / 435.565
50 SAT 02 Sep 22:28:21 22:32:09 48° 72° (ENE) 22:35:59 437.505
UNISAT 6 02 Sep 22:31:28 22:34:58 22° 91° (E) 22:38:29 437.425
AIST 2 02 Sep 22:34:03 22:36:47 17° 29° (NNE) 22:39:33 435.215
YUBILEINY 02 Sep 22:34:12 22:42:31 43° 292° (WNW) 22:50:48 435.215
HO-68 02 Sep 22:35:21 22:38:42 13° 279° (W) 22:41:35 435.675
ZACube-1 02 Sep 22:38:09 22:42:08 28° 267° (W) 22:46:06 437.345
FUNcube-1 02 Sep 22:42:35 22:46:28 26° 267° (W) 22:50:19 145.935
VELOX 1 02 Sep 22:44:07 22:48:27 62° 73° (ENE) 22:52:51 145.980
CUBEBUG 2 02 Sep 22:49:44 22:52:36 15° 273° (W) 22:55:20 437.445
AUBIESAT-1 02 Sep 22:51:41 22:53:32 13° 92° (E) 22:55:28 437.475
